Location: Recife
(8.0585°S, 34.8848°W)
Time: 10:39:23
(UTC-03:00)

Explorer 7 - Pass Details

Date: 19 April 2026
Orbit: 427 x 536 km, 50.2° (Epoch: 14 May)

Event Time Altitude Azimuth Distance (km) Brightness Sun altitude
Rises 10:11:06 0° 198° (SSW) 2,500 9.9 64.4°
Reaches altitude 10° 10:13:33 10° 182° (S) 1,643 9.2 64.8°
Maximum altitude 10:16:32 23° 129° (SE) 1,085 8.7 65.2°
Drops below altitude 10° 10:19:36 10° 76° (ENE) 1,689 9.8 65.7°
Sets 10:22:09 0° 60° (ENE) 2,590 10.6 66.1°
